Meath Environmental Platform

Observations for Trim Patrick St

Time AQI Temp °C Hum % Pres Pa CO μg/m³ H₂S μg/m³ NO μg/m³ NO₂ μg/m³ O₃ μg/m³ SO₂ μg/m³ PM1 μg/m³ PM2.5 μg/m³ PM10 μg/m³
Wednesday 5 August 2026
06:22 2 14.9 74 38,460 0.17 0 2.82 9.19 54.42 0 2 4.89 5.38
06:21 2 14.9 74 38,460 0.17 0 2.95 8.15 52.5 0 2 4.9 5.39
06:19 2 14.9 74 38,460 0.16 0 2.97 6.69 45.51 0 2 4.9 5.39
06:17 2 14.9 74 38,460 0.15 0 3.01 7.18 52.26 0 2 4.9 5.39
06:15 2 14.9 74 38,460 0.16 0 2.97 7.25 51.28 0 2 4.87 5.36
06:12 2 14.9 74 38,460 0.16 0 2.95 7.98 47.19 0 2 4.88 5.37
06:11 2 14.9 74 38,460 0.18 0 2.94 9.02 56.45 0 2 6.3 6.93
06:10 2 14.9 74 38,460 0.16 0 2.94 6.36 46.84 0 2 4.89 5.38
06:09 2 14.9 74 38,460 0.17 0 2.91 7.76 54.04 0 2 4.89 5.38
06:08 2 14.9 74 38,460 0.16 0 2.84 6.63 44.92 0 2 5.59 6.14
06:07 2 14.9 74 38,460 0.16 0 2.73 7.24 50.24 0 2 4.87 5.36
06:06 2 14.9 74 38,460 0.17 0 2.73 7.58 53.17 0 2.86 7.02 7.72
06:05 2 14.9 74 38,460 0.16 0 2.82 8.15 54.26 0 2 5.59 6.14
06:04 2 14.9 74 38,460 0.16 0 2.89 8.84 49.91 0 2 5.59 6.15
06:03 2 14.9 74 38,460 0.17 0 3.04 6.13 45.87 0 2 4.88 5.37
06:02 2 14.9 74 38,460 0.16 0 3.03 7.97 54.48 0 2 6.3 6.94
06:01 2 14.9 74 38,460 0.16 0 3.06 7.24 48.16 0 2 5.59 6.14
06:00 2 14.9 74 38,460 0.17 0 3.06 7.78 55.34 0 2 4.87 5.36
05:59 2 14.9 75 38,460 0.16 0 2.97 6.81 42.94 0 2 6.27 6.9
05:58 2 14.9 75 38,460 0.16 0 2.86 7.45 48.56 0 2 6.28 6.91